Tracking 30105 objects as of 25-Jan-2025
HD Live streaming from Space Station
objects crossing your sky now

OBJECT Z

Track OBJECT Z now!
10-day predictions
OBJECT Z is classified as:


NORAD ID: 57189
Int'l Code: 2023-091Z
Perigee: 508.8 km
Apogee: 525.1 km
Inclination: 97.6 °
Period: 94.8 minutes
Semi major axis: 6887 km
RCS: Unknown
Launch date: June 27, 2023
Source: (TBD)
Launch site: VOSTOCHNY COSMODROME (VOSTO)

Uplink (MHz):
Downlink (MHz): 437.825
Beacon (MHz):
Mode: 2k4/4k8*/9k6 GMSK_USP
Call sign: RS38S
Status: Active

Your satellite tracking list
Your tracking list is empty




NASA's NSSDC Master Catalog

Two Line Element Set (TLE):
1 57189U 23091Z   25024.90247983  .00019500  00000-0  94014-3 0  9996
2 57189  97.5834  83.7828 0011833  64.6261 295.6196 15.18690653 87114
Source of the keplerian elements: AFSPC